Regional Weather Roundup
Issued by NWS

Home | Current Version | Previous Version | Text Only | Print | Product List | Glossary On
Versions: 1 2 3 4 5 6 7 8 9 10 11 12 13 14 15 16 17 18 19 20 21 22 23 24 25 26
000
ASUS46 KSEW 172210
RWRWA

WASHINGTON REGIONAL WEATHER ROUNDUP
NATIONAL WEATHER SERVICE SEATTLE WA
200 PM PST SAT FEB 17 2018

NOTE:"FAIR" INDICATES FEW OR NO CLOUDS BELOW 12,000 FEET WITH NO
SIGNIFICANT WEATHER AND/OR OBSTRUCTIONS TO VISIBILITY.

WAZ507-509-555>559-172300-
SEATTLE, TACOMA, EVERETT, AND VICINITY

CITY           SKY/WX    TMP DP  RH WIND       PRES   REMARKS
EVERETT        LGT RAIN  42  40  92 NW3       29.56R
BOEING FIELD   MOSUNNY   50  37  61 SW20G35   29.60R
RENTON         MOSUNNY   50  37  61 SW17G30   29.61R
SEATAC AIRPORT MOSUNNY   48  37  65 SW25G35   29.60R
JBLM-MCCHORD   MOSUNNY   46  46  99 SW22G35   29.65
PUYALLUP       PTSUNNY   45  41  87 W13G23    29.66R
BREMERTON      MOSUNNY   47  37  68 SW22G37   29.58R
JBLM-FT LEWIS  PTSUNNY   46  46 100 S20G31    29.65F
TACOMA NARROWS PTSUNNY   47  39  74 SW13G39   29.63F
$$

WAZ001-503-506-510-514-515-172300-
NORTH INTERIOR

CITY           SKY/WX    TMP DP  RH WIND       PRES   REMARKS
BELLINGHAM     CLOUDY    45  35  68 SW9       29.50R
FRIDAY HARBOR  PTSUNNY   45  35  68 SW16G29   29.53S
EASTSOUND      PTSUNNY   46  36  66 SW13G24   29.49S
PORT ANGELES   PTSUNNY   45  37  73 W13       29.57R
EDIZ HOOK      FAIR      45  37  75 W18G24    29.56S
PORT TOWNSEND  FAIR      46  39  76 NW13G21   29.56R
NAS WHIDBEY    LGT RAIN  47  39  74 W25G38    29.59S
ARLINGTON      PTSUNNY   45  36  70 W22G32    29.54F
BURLINGTON     PTSUNNY   46  37  71 SW10G25   29.55R
$$

WAZ020-022-039-040-504-511-512-172300-
SOUTHWEST INTERIOR

CITY           SKY/WX    TMP DP  RH WIND       PRES   REMARKS
SHELTON        PTSUNNY   45  39  79 SW21G38   29.64S
OLYMPIA        MOSUNNY   45  40  82 SW16G30   29.68S
CHEHALIS       FAIR      48  43  81 W12G20    29.73S
KELSO          LGT RAIN  48  43  82 W17       29.79S
VANCOUVER      PTSUNNY   55  44  66 W15G29    29.78F
SCAPPOOSE, OR  PTSUNNY   52  41  66 W16G23    29.77F
PORTLAND, OR   PTSUNNY   54  42  64 W15G24    29.79F
$$

WAZ021-516-517-172300-
WASHINGTON COAST

CITY           SKY/WX    TMP DP  RH WIND       PRES   REMARKS
FORKS          PTSUNNY   45  38  76 W14G26    29.63S
HOQUIAM        NOT AVBL
ASTORIA, OR    LGT RAIN  46  41  82 W20G32    29.82S
$$

WAZ019-023-024-040-567>569-172300-
CASCADE MOUNTAINS AND COLUMBIA GORGE

CITY           SKY/WX    TMP DP  RH WIND       PRES   REMARKS
STAMPEDE PASS  NOT AVBL
TROUTDALE, OR  CLOUDY    56  45  66 SW22G35   29.79F
HOOD RIVER, OR MOCLDY    54  41  62 W10G22    29.66F
THE DALLES, OR LGT RAIN  52  32  46 W35G54    29.62R
$$

WAZ026-027-041>044-520-521-172300-
EAST SLOPES

CITY           SKY/WX    TMP DP  RH WIND       PRES   REMARKS
OMAK           CLOUDY    33  32  96 N5        29.38F
WENATCHEE      LGT RAIN  37  37 100 SE8       29.41F
ELLENSBURG     LGT RAIN  41  37  86 NW8       29.46F
YAKIMA         PTSUNNY   58  36  43 W15G29    29.50R
SUNNYSIDE ARPT MOCLDY    58  36  43 SW38G47   29.52F
YAKIMA TC      FAIR      53  34  48 W23G35    29.48R
$$

WAZ028-034-035-172300-
COLUMBIA BASIN

CITY           SKY/WX    TMP DP  RH WIND       PRES   REMARKS
EPHRATA        MOSUNNY   53  34  48 SW23G29   29.42F
MOSES LAKE     PTSUNNY   55  36  48 W18G35    29.44F
PASCO          CLOUDY    58  42  55 S16G30    29.54F
RICHLAND ARPT  CLOUDY    62  38  41 SW31G48   29.51F
HERMISTON, OR  CLOUDY    59  40  49 SW28G47   29.55F
$$

WAZ036>038-172300-
NORTHEAST WASHINGTON

CITY           SKY/WX    TMP DP  RH WIND       PRES   REMARKS
SPOKANE GEIGER CLOUDY    38  36  92 S22G31    29.44F
SPOKANE FELTS  CLOUDY    40  36  86 SW15G23   29.45F
FAIRCHILD AFB  FLURRIES  38  38 100 S21G28    29.42F
COEURDALENE,ID LGT RAIN  35  33  92 SE12      29.47F WCI  27
DEER PARK      CLOUDY    33  32  96 MISG      29.44F FOG
$$

WAZ029>033-172300-
SOUTHEAST WASHINGTON

CITY           SKY/WX    TMP DP  RH WIND       PRES   REMARKS
PULLMAN        CLOUDY    40  37  89 SW20G25   29.55F
LEWISTON, ID   CLOUDY    48  37  65 S20G25    29.52F
WALLA WALLA    CLOUDY    50  43  77 S13       29.56F
PENDLETON, OR  LGT RAIN  48  42  80 S18G31    29.55F
$$




USA.gov is the U.S. government's official web portal to all federal, state and local government web resources and services.